Dyersburg, TN

5:27 AM CDT on July 21, 2017 (GMT -0500)
Dyersburg Municipal

Weather History for KDYR - September, 2012

Change the Weather History Date:

Tuesday, September 18, 2012

  Actual Average Record
Temperature  
Mean Temperature 62 °F -  
Max Temperature 71 °F 79 °F 93 °F (2010)
Min Temperature 53 °F 58 °F 51 °F (1999)
Degree Days  
Heating Degree Days 3    
Growing Degree Days 12 (Base 50)    
Moisture  
Dew Point 49 °F    
Average Humidity 58    
Maximum Humidity 83    
Minimum Humidity 35    
Precipitation  
Precipitation 0.00 in - - ()
Sea Level Pressure  
Sea Level Pressure 29.93 in    
Wind  
Wind Speed 9 mph (NNW)    
Max Wind Speed 20 mph    
Max Gust Speed 25 mph    
Visibility 9 miles    
Events      
Averages and records for this station are not official NWS values.
T = Trace of Precipitation, MM = Missing Value Source: NWS Daily Summary

Daily Weather History Graph

Daily Weather History Graph

Search for Another Location

Airport or City:

Trip Planner

Search our weather history database for the weather conditions in past years. The results will help you decide how hot, cold, wet, or windy it might be!

Date:

Astronomy

Sep. 18, 2012 Rise Set
Actual Time 6:42 AM CDT 6:59 PM CDT
Civil Twilight 6:17 AM CDT 7:25 PM CDT
Nautical Twilight 5:47 AM CDT 7:55 PM CDT
Astronomical Twilight 5:16 AM CDT 8:25 PM CDT
Moon 9:34 AM CDT (9/18) 8:31 PM CDT (9/18)
Length of Visible Light 13h 08m
Length of Day
12h 16m
Waxing Crescent, 9% of the Moon is Illuminated
Sep 18
Waxing Crescent
Sep 22
First Quarter
Sep 29
Full
Oct 8
Last Quarter
Oct 15
New

Hourly Weather History & Observations

Time (CDT) Temp. Dew Point Humidity Pressure Visibility Wind Dir Wind Speed Gust Speed Precip Events Conditions
12:15 AM 68.0 °F 60.8 °F 78% 29.78 in 7.0 mi WNW 4.6 mph - N/A   Partly Cloudy
12:35 AM 68.0 °F 60.8 °F 78% 29.78 in 6.0 mi WNW 4.6 mph - N/A   Scattered Clouds
12:55 AM 68.0 °F 60.8 °F 78% 29.78 in 6.0 mi Calm Calm - N/A   Mostly Cloudy
1:15 AM 68.0 °F 62.6 °F 83% 29.78 in 5.0 mi Calm Calm - N/A   Overcast
1:35 AM 68.0 °F 62.6 °F 83% 29.78 in 5.0 mi West 3.5 mph - N/A   Mostly Cloudy
1:55 AM 68.0 °F 62.6 °F 83% 29.78 in 5.0 mi West 4.6 mph - N/A   Mostly Cloudy
2:15 AM 68.0 °F 60.8 °F 78% 29.78 in 5.0 mi West 5.8 mph - N/A   Mostly Cloudy
2:35 AM 68.0 °F 60.8 °F 78% 29.78 in 5.0 mi West 3.5 mph - N/A   Mostly Cloudy
2:55 AM 66.2 °F 60.8 °F 83% 29.78 in 7.0 mi West 4.6 mph - N/A   Mostly Cloudy
3:15 AM 66.2 °F 60.8 °F 83% 29.77 in 9.0 mi West 5.8 mph - N/A   Scattered Clouds
3:35 AM 66.2 °F 60.8 °F 83% 29.77 in 8.0 mi West 5.8 mph - N/A   Clear
3:55 AM 66.2 °F 60.8 °F 83% 29.78 in 10.0 mi West 4.6 mph - N/A   Partly Cloudy
4:15 AM 66.2 °F 60.8 °F 83% 29.78 in 8.0 mi WNW 5.8 mph - N/A   Mostly Cloudy
4:35 AM 66.2 °F 60.8 °F 83% 29.79 in 10.0 mi NNW 8.1 mph 18.4 mph N/A   Overcast
4:55 AM 66.2 °F 60.8 °F 83% 29.80 in 10.0 mi North 17.3 mph 24.2 mph N/A   Overcast
5:15 AM 66.2 °F 57.2 °F 73% 29.81 in 10.0 mi North 12.7 mph 21.9 mph N/A   Overcast
5:35 AM 64.4 °F 57.2 °F 77% 29.82 in 9.0 mi North 12.7 mph 20.7 mph N/A   Overcast
5:55 AM 64.4 °F 55.4 °F 73% 29.83 in 10.0 mi NNW 17.3 mph 23.0 mph N/A   Overcast
6:15 AM 64.4 °F 53.6 °F 68% 29.84 in 10.0 mi North 13.8 mph 19.6 mph N/A   Overcast
6:35 AM 62.6 °F 53.6 °F 72% 29.85 in 10.0 mi North 15.0 mph 20.7 mph N/A   Overcast
6:55 AM 62.6 °F 51.8 °F 68% 29.86 in 10.0 mi North 15.0 mph 24.2 mph N/A   Mostly Cloudy
7:15 AM 62.6 °F 51.8 °F 68% 29.88 in 10.0 mi North 15.0 mph 21.9 mph N/A   Overcast
7:35 AM 60.8 °F 50.0 °F 68% 29.89 in 10.0 mi NNW 16.1 mph 23.0 mph N/A   Overcast
7:55 AM 60.8 °F 50.0 °F 68% 29.90 in 10.0 mi North 16.1 mph 23.0 mph N/A   Overcast
8:15 AM 62.6 °F 51.8 °F 68% 29.90 in 10.0 mi NNW 12.7 mph 20.7 mph N/A   Scattered Clouds
8:35 AM 62.6 °F 48.2 °F 59% 29.91 in 10.0 mi NNW 19.6 mph - N/A   Clear
8:55 AM 62.6 °F 46.4 °F 55% 29.92 in 10.0 mi NNW 16.1 mph 20.7 mph N/A   Clear
9:15 AM 62.6 °F 46.4 °F 55% 29.93 in 10.0 mi North 12.7 mph 18.4 mph N/A   Clear
9:35 AM 62.6 °F 44.6 °F 52% 29.93 in 10.0 mi North 13.8 mph 23.0 mph N/A   Mostly Cloudy
9:55 AM 64.4 °F 44.6 °F 49% 29.95 in 10.0 mi North 17.3 mph 23.0 mph N/A   Partly Cloudy
10:15 AM 64.4 °F 46.4 °F 52% 29.95 in 10.0 mi North 17.3 mph 23.0 mph N/A   Clear
10:35 AM 64.4 °F 44.6 °F 49% 29.96 in 10.0 mi North 15.0 mph 24.2 mph N/A   Clear
10:55 AM 64.4 °F 42.8 °F 45% 29.96 in 10.0 mi North 16.1 mph 21.9 mph N/A   Clear
11:15 AM 66.2 °F 44.6 °F 46% 29.96 in 10.0 mi North 18.4 mph 23.0 mph N/A   Clear
11:35 AM 66.2 °F 44.6 °F 46% 29.97 in 10.0 mi North 17.3 mph 23.0 mph N/A   Clear
11:55 AM 66.2 °F 42.8 °F 43% 29.98 in 10.0 mi North 12.7 mph 23.0 mph N/A   Clear
12:15 PM 68.0 °F 44.6 °F 43% 29.98 in 10.0 mi North 13.8 mph 21.9 mph N/A   Clear
12:35 PM 68.0 °F 44.6 °F 43% 29.98 in 10.0 mi North 15.0 mph 25.3 mph N/A   Clear
12:55 PM 68.0 °F 42.8 °F 40% 29.98 in 10.0 mi North 12.7 mph 25.3 mph N/A   Clear
1:15 PM 69.8 °F 42.8 °F 38% 29.98 in 10.0 mi NNW 10.4 mph 21.9 mph N/A   Clear
1:35 PM 69.8 °F 44.6 °F 40% 29.98 in 10.0 mi North 13.8 mph 20.7 mph N/A   Clear
1:55 PM 69.8 °F 42.8 °F 38% 29.98 in 10.0 mi North 13.8 mph 17.3 mph N/A   Clear
2:15 PM 69.8 °F 42.8 °F 38% 29.99 in 10.0 mi NNW 18.4 mph 23.0 mph N/A   Clear
2:35 PM 69.8 °F 42.8 °F 38% 29.99 in 10.0 mi NNW 10.4 mph 19.6 mph N/A   Clear
2:55 PM 71.6 °F 44.6 °F 38% 29.98 in 10.0 mi North 16.1 mph 20.7 mph N/A   Clear
3:15 PM 71.6 °F 44.6 °F 38% 29.99 in 10.0 mi NNW 16.1 mph 24.2 mph N/A   Clear
3:35 PM 71.6 °F 42.8 °F 35% 29.99 in 10.0 mi North 11.5 mph 20.7 mph N/A   Clear
3:55 PM 71.6 °F 42.8 °F 35% 29.98 in 10.0 mi North 12.7 mph 21.9 mph N/A   Clear
4:15 PM 69.8 °F 42.8 °F 38% 29.99 in 10.0 mi NNW 13.8 mph 20.7 mph N/A   Clear
4:55 PM 69.8 °F 42.8 °F 38% 29.99 in 10.0 mi NNW 12.7 mph 19.6 mph N/A   Clear
5:15 PM 69.8 °F 42.8 °F 38% 30.00 in 10.0 mi North 12.7 mph 18.4 mph N/A   Clear
5:35 PM 69.8 °F 42.8 °F 38% 30.00 in 10.0 mi NNW 13.8 mph 18.4 mph N/A   Clear
5:55 PM 69.8 °F 42.8 °F 38% 30.00 in 10.0 mi North 11.5 mph - N/A   Clear
6:15 PM 68.0 °F 42.8 °F 40% 30.00 in 10.0 mi North 9.2 mph - N/A   Clear
6:35 PM 66.2 °F 42.8 °F 43% 30.01 in 10.0 mi North 8.1 mph - N/A   Clear
6:55 PM 64.4 °F 42.8 °F 45% 30.01 in 10.0 mi North 5.8 mph - N/A   Clear
7:15 PM 62.6 °F 42.8 °F 48% 30.01 in 10.0 mi North 5.8 mph - N/A   Clear
7:35 PM 60.8 °F 42.8 °F 52% 30.02 in 10.0 mi NNE 4.6 mph - N/A   Clear
7:55 PM 60.8 °F 42.8 °F 52% 30.03 in 10.0 mi NNE 4.6 mph - N/A   Clear
8:15 PM 60.8 °F 42.8 °F 52% 30.04 in 10.0 mi NNE 3.5 mph - N/A   Clear
8:35 PM 59.0 °F 42.8 °F 55% 30.04 in 10.0 mi NNE 4.6 mph - N/A   Clear
8:55 PM 60.8 °F 42.8 °F 52% 30.05 in 10.0 mi NNE 3.5 mph - N/A   Clear
9:15 PM 55.4 °F 42.8 °F 63% 30.06 in 10.0 mi Calm Calm - N/A   Clear
9:35 PM 55.4 °F 42.8 °F 63% 30.07 in 10.0 mi Calm Calm - N/A   Clear
9:55 PM 53.6 °F 42.8 °F 67% 30.07 in 10.0 mi Calm Calm - N/A   Clear
10:15 PM 55.4 °F 42.8 °F 63% 30.08 in 10.0 mi Calm Calm - N/A   Clear
10:55 PM 55.4 °F 42.8 °F 63% 30.09 in 10.0 mi NE 3.5 mph - N/A   Clear
11:15 PM 55.4 °F 42.8 °F 63% 30.09 in 10.0 mi Calm Calm - N/A   Clear
11:35 PM 55.4 °F 42.8 °F 63% 30.09 in 10.0 mi NE 3.5 mph - N/A   Clear
11:55 PM 53.6 °F 42.8 °F 67% 30.10 in 10.0 mi NE 3.5 mph - N/A   Clear